Time,TemperatureF,DewpointF,PressureIn,WindDirection,WindDirectionDegrees,WindSpeedMPH,WindSpeedGustMPH,Humidity,HourlyPrecipIn,Conditions,Clouds,dailyrainin,SoftwareType,DateUTC
2013-03-20 00:02:00,33.8,33.3,29.66,East,90,10.0,14.0,98,0.03,,,0.00,meteohub,2013-03-20 00:02:00,
2013-03-20 00:07:00,33.8,33.3,29.66,East,90,13.0,14.0,98,0.03,,,0.00,meteohub,2013-03-20 00:07:00,
2013-03-20 00:13:00,33.8,33.3,29.66,East,90,6.0,13.0,98,0.02,,,0.00,meteohub,2013-03-20 00:13:00,
2013-03-20 00:18:00,33.8,33.3,29.69,East,90,8.0,13.0,98,0.02,,,0.00,meteohub,2013-03-20 00:18:00,
2013-03-20 00:23:00,33.8,33.3,29.69,East,90,11.0,13.0,98,0.02,,,0.00,meteohub,2013-03-20 00:23:00,
2013-03-20 00:28:00,33.8,33.3,29.69,East,90,8.0,13.0,98,0.03,,,0.01,meteohub,2013-03-20 00:28:00,
2013-03-20 00:34:00,34.0,33.4,29.69,ENE,67,4.0,13.0,98,0.02,,,0.01,meteohub,2013-03-20 00:34:00,
2013-03-20 00:39:00,33.8,33.3,29.69,East,90,8.0,13.0,98,0.02,,,0.01,meteohub,2013-03-20 00:39:00,
2013-03-20 00:44:00,34.0,33.4,29.69,ESE,112,5.0,12.0,98,0.02,,,0.02,meteohub,2013-03-20 00:44:00,
2013-03-20 00:49:00,34.0,33.4,29.69,ESE,112,6.0,13.0,98,0.02,,,0.02,meteohub,2013-03-20 00:49:00,
2013-03-20 00:54:00,34.0,33.4,29.69,ESE,112,10.0,13.0,98,0.02,,,0.02,meteohub,2013-03-20 00:54:00,
2013-03-20 01:00:00,34.0,33.4,29.69,SE,135,6.0,13.0,98,0.03,,,0.02,meteohub,2013-03-20 01:00:00,
2013-03-20 01:05:00,34.0,33.4,29.69,SSE,157,6.0,15.0,98,0.02,,,0.02,meteohub,2013-03-20 01:05:00,
2013-03-20 01:10:00,34.0,33.4,29.69,ENE,67,7.0,15.0,98,0.03,,,0.03,meteohub,2013-03-20 01:10:00,
2013-03-20 01:15:00,34.0,33.4,29.69,ENE,67,5.0,13.0,98,0.03,,,0.03,meteohub,2013-03-20 01:15:00,
2013-03-20 01:20:00,34.0,33.4,29.69,East,90,11.0,13.0,98,0.03,,,0.03,meteohub,2013-03-20 01:20:00,
2013-03-20 01:26:00,34.0,33.4,29.69,East,90,6.0,13.0,98,0.02,,,0.03,meteohub,2013-03-20 01:26:00,
2013-03-20 01:31:00,34.0,33.4,29.69,ENE,67,5.0,13.0,98,0.03,,,0.04,meteohub,2013-03-20 01:31:00,
2013-03-20 01:36:00,34.0,33.4,29.69,East,90,9.0,13.0,98,0.03,,,0.04,meteohub,2013-03-20 01:36:00,
2013-03-20 01:42:00,34.0,33.4,29.69,East,90,9.0,12.0,98,0.02,,,0.04,meteohub,2013-03-20 01:42:00,
2013-03-20 01:47:00,34.0,33.4,29.69,ESE,112,9.0,12.0,98,0.03,,,0.04,meteohub,2013-03-20 01:47:00,
2013-03-20 01:52:00,33.8,33.3,29.69,East,90,8.0,13.0,98,0.03,,,0.04,meteohub,2013-03-20 01:52:00,
2013-03-20 01:58:00,33.8,33.3,29.69,ENE,67,3.0,13.0,98,0.03,,,0.05,meteohub,2013-03-20 01:58:00,
2013-03-20 02:03:00,33.8,33.3,29.69,East,90,7.0,13.0,98,0.03,,,0.05,meteohub,2013-03-20 02:03:00,
2013-03-20 02:08:00,33.8,33.3,29.69,SE,135,5.0,12.0,98,0.02,,,0.05,meteohub,2013-03-20 02:08:00,
2013-03-20 02:13:00,33.8,33.3,29.69,ENE,67,5.0,13.0,98,0.02,,,0.05,meteohub,2013-03-20 02:13:00,
2013-03-20 02:19:00,33.8,33.3,29.69,ENE,67,10.0,13.0,98,0.03,,,0.05,meteohub,2013-03-20 02:19:00,
2013-03-20 02:24:00,34.0,33.3,29.69,ESE,112,9.0,13.0,97,0.02,,,0.05,meteohub,2013-03-20 02:24:00,
2013-03-20 02:29:00,34.0,33.3,29.69,East,90,6.0,13.0,97,0.02,,,0.05,meteohub,2013-03-20 02:29:00,
2013-03-20 02:34:00,34.0,33.4,29.69,East,90,6.0,12.0,98,0.02,,,0.06,meteohub,2013-03-20 02:34:00,
2013-03-20 02:40:00,34.0,33.4,29.69,ENE,67,6.0,13.0,98,0.02,,,0.06,meteohub,2013-03-20 02:40:00,
2013-03-20 02:45:00,34.0,33.4,29.69,East,90,13.0,13.0,98,0.02,,,0.06,meteohub,2013-03-20 02:45:00,
2013-03-20 02:50:00,34.0,33.4,29.69,East,90,9.0,13.0,98,0.02,,,0.06,meteohub,2013-03-20 02:50:00,
2013-03-20 02:56:00,34.0,33.4,29.69,East,90,6.0,13.0,98,0.02,,,0.06,meteohub,2013-03-20 02:56:00,
2013-03-20 03:01:00,33.8,33.3,29.69,East,90,13.0,13.0,98,0.02,,,0.06,meteohub,2013-03-20 03:01:00,
2013-03-20 03:06:00,33.8,33.3,29.69,East,90,4.0,16.0,98,0.02,,,0.06,meteohub,2013-03-20 03:06:00,
2013-03-20 03:11:00,33.8,33.1,29.69,East,90,6.0,16.0,97,0.02,,,0.07,meteohub,2013-03-20 03:11:00,
2013-03-20 03:16:00,33.8,33.1,29.69,ENE,67,9.0,16.0,97,0.02,,,0.07,meteohub,2013-03-20 03:16:00,
2013-03-20 03:21:00,33.8,33.1,29.69,ESE,112,5.0,14.0,97,0.02,,,0.07,meteohub,2013-03-20 03:21:00,
2013-03-20 03:26:00,33.8,33.1,29.69,SSE,157,11.0,14.0,97,0.02,,,0.07,meteohub,2013-03-20 03:26:00,
2013-03-20 03:31:00,33.6,33.1,29.69,East,90,6.0,13.0,98,0.02,,,0.07,meteohub,2013-03-20 03:31:00,
2013-03-20 03:37:00,33.6,33.1,29.69,ESE,112,8.0,13.0,98,0.02,,,0.07,meteohub,2013-03-20 03:37:00,
2013-03-20 03:42:00,33.6,33.1,29.69,ENE,67,10.0,12.0,98,0.02,,,0.07,meteohub,2013-03-20 03:42:00,
2013-03-20 03:47:00,33.6,33.1,29.69,NE,45,5.0,11.0,98,0.02,,,0.07,meteohub,2013-03-20 03:47:00,
2013-03-20 03:52:00,33.6,33.1,29.69,NE,45,8.0,11.0,98,0.02,,,0.08,meteohub,2013-03-20 03:52:00,
2013-03-20 03:58:00,33.6,33.1,29.69,East,90,6.0,11.0,98,0.02,,,0.08,meteohub,2013-03-20 03:58:00,
2013-03-20 04:00:00,33.6,33.1,29.69,ENE,67,6.0,11.0,98,0.02,,,0.08,meteohub,2013-03-20 04:00:00,
2013-03-20 04:01:00,33.6,33.1,29.69,ENE,67,6.0,11.0,98,0.02,,,0.08,meteohub,2013-03-20 04:01:00,
2013-03-20 04:07:00,33.6,33.1,29.69,East,90,2.0,11.0,98,0.02,,,0.08,meteohub,2013-03-20 04:07:00,
2013-03-20 04:12:00,33.6,33.1,29.69,NNE,22,3.0,10.0,98,0.01,,,0.08,meteohub,2013-03-20 04:12:00,
2013-03-20 04:17:00,33.6,33.1,29.72,ESE,112,4.0,7.0,98,0.02,,,0.08,meteohub,2013-03-20 04:17:00,
2013-03-20 04:22:00,33.6,33.1,29.72,East,90,4.0,9.0,98,0.02,,,0.08,meteohub,2013-03-20 04:22:00,
2013-03-20 04:27:00,33.6,33.1,29.72,ENE,67,3.0,9.0,98,0.02,,,0.08,meteohub,2013-03-20 04:27:00,
2013-03-20 04:32:00,33.6,33.1,29.72,East,90,10.0,10.0,98,0.01,,,0.08,meteohub,2013-03-20 04:32:00,
2013-03-20 04:37:00,33.6,33.1,29.72,SSE,157,3.0,10.0,98,0.01,,,0.08,meteohub,2013-03-20 04:37:00,
2013-03-20 04:42:00,33.6,33.1,29.72,East,90,6.0,10.0,98,0.01,,,0.08,meteohub,2013-03-20 04:42:00,
2013-03-20 04:47:00,33.6,33.1,29.72,East,90,7.0,11.0,98,0.02,,,0.09,meteohub,2013-03-20 04:47:00,
2013-03-20 04:53:00,33.6,33.1,29.72,SSE,157,6.0,13.0,98,0.01,,,0.09,meteohub,2013-03-20 04:53:00,
2013-03-20 04:58:00,33.6,33.1,29.72,ESE,112,11.0,13.0,98,0.01,,,0.09,meteohub,2013-03-20 04:58:00,
2013-03-20 05:03:00,33.6,33.1,29.72,East,90,9.0,16.0,98,0.01,,,0.09,meteohub,2013-03-20 05:03:00,
2013-03-20 05:08:00,33.6,33.1,29.72,ESE,112,6.0,16.0,98,0.01,,,0.09,meteohub,2013-03-20 05:08:00,
2013-03-20 05:14:00,33.6,33.1,29.72,ESE,112,8.0,16.0,98,0.00,,,0.09,meteohub,2013-03-20 05:14:00,
2013-03-20 05:19:00,33.6,33.1,29.72,East,90,6.0,13.0,98,0.00,,,0.09,meteohub,2013-03-20 05:19:00,
2013-03-20 05:24:00,33.6,33.1,29.72,SE,135,7.0,13.0,98,0.01,,,0.09,meteohub,2013-03-20 05:24:00,
2013-03-20 05:29:00,33.6,33.1,29.72,SSE,157,4.0,15.0,98,0.01,,,0.09,meteohub,2013-03-20 05:29:00,
2013-03-20 05:35:00,33.6,33.1,29.72,East,90,5.0,15.0,98,0.01,,,0.09,meteohub,2013-03-20 05:35:00,
2013-03-20 05:40:00,33.6,33.1,29.72,ESE,112,6.0,13.0,98,0.01,,,0.09,meteohub,2013-03-20 05:40:00,
2013-03-20 05:45:00,33.6,33.1,29.72,ESE,112,8.0,17.0,98,0.00,,,0.09,meteohub,2013-03-20 05:45:00,
2013-03-20 05:50:00,33.8,33.1,29.72,SE,135,9.0,17.0,97,0.01,,,0.10,meteohub,2013-03-20 05:50:00,
2013-03-20 05:55:00,33.8,33.1,29.72,SSE,157,7.0,17.0,97,0.01,,,0.10,meteohub,2013-03-20 05:55:00,
2013-03-20 06:01:00,33.8,33.1,29.72,East,90,6.0,15.0,97,0.01,,,0.10,meteohub,2013-03-20 06:01:00,
2013-03-20 06:06:00,33.8,33.1,29.75,SE,135,13.0,15.0,97,0.01,,,0.10,meteohub,2013-03-20 06:06:00,
2013-03-20 06:12:00,33.8,33.1,29.75,East,90,15.0,15.0,97,0.01,,,0.10,meteohub,2013-03-20 06:12:00,
2013-03-20 06:17:00,33.8,33.1,29.75,ESE,112,6.0,20.0,97,0.01,,,0.10,meteohub,2013-03-20 06:17:00,
2013-03-20 06:22:00,33.8,33.1,29.75,SSW,202,6.0,20.0,97,0.01,,,0.10,meteohub,2013-03-20 06:22:00,
2013-03-20 06:27:00,33.8,33.1,29.75,East,90,10.0,20.0,97,0.01,,,0.10,meteohub,2013-03-20 06:27:00,
2013-03-20 06:32:00,33.8,33.1,29.75,SE,135,6.0,15.0,97,0.01,,,0.10,meteohub,2013-03-20 06:32:00,
2013-03-20 06:37:00,33.8,33.1,29.75,ESE,112,10.0,15.0,97,0.01,,,0.10,meteohub,2013-03-20 06:37:00,
2013-03-20 06:43:00,33.8,33.3,29.75,East,90,9.0,15.0,98,0.01,,,0.10,meteohub,2013-03-20 06:43:00,
2013-03-20 06:48:00,33.8,33.1,29.75,ESE,112,9.0,15.0,97,0.02,,,0.11,meteohub,2013-03-20 06:48:00,
2013-03-20 06:53:00,33.6,33.1,29.75,SE,135,12.0,15.0,98,0.02,,,0.11,meteohub,2013-03-20 06:53:00,
2013-03-20 06:58:00,33.6,32.9,29.75,SE,135,8.0,15.0,97,0.02,,,0.11,meteohub,2013-03-20 06:58:00,
2013-03-20 07:03:00,33.6,32.9,29.78,ESE,112,6.0,16.0,97,0.02,,,0.11,meteohub,2013-03-20 07:03:00,
2013-03-20 07:08:00,33.6,32.9,29.78,SE,135,9.0,16.0,97,0.02,,,0.11,meteohub,2013-03-20 07:08:00,
2013-03-20 07:14:00,33.6,32.9,29.78,ESE,112,9.0,16.0,97,0.02,,,0.11,meteohub,2013-03-20 07:14:00,
2013-03-20 07:19:00,33.8,33.1,29.78,SE,135,4.0,13.0,97,0.02,,,0.12,meteohub,2013-03-20 07:19:00,
2013-03-20 07:24:00,33.8,33.1,29.78,ESE,112,10.0,13.0,97,0.02,,,0.12,meteohub,2013-03-20 07:24:00,
2013-03-20 07:29:00,33.8,33.1,29.78,East,90,7.0,15.0,97,0.02,,,0.12,meteohub,2013-03-20 07:29:00,
2013-03-20 07:34:00,34.0,33.3,29.78,ESE,112,6.0,15.0,97,0.02,,,0.12,meteohub,2013-03-20 07:34:00,
2013-03-20 07:39:00,34.0,32.9,29.78,East,90,18.0,18.0,96,0.02,,,0.12,meteohub,2013-03-20 07:39:00,
2013-03-20 07:45:00,33.8,32.7,29.78,SE,135,9.0,18.0,96,0.01,,,0.12,meteohub,2013-03-20 07:45:00,
2013-03-20 07:50:00,33.8,32.7,29.78,East,90,5.0,18.0,96,0.01,,,0.12,meteohub,2013-03-20 07:50:00,
2013-03-20 07:55:00,33.8,32.7,29.78,East,90,11.0,17.0,96,0.01,,,0.12,meteohub,2013-03-20 07:55:00,
2013-03-20 08:00:00,33.6,32.9,29.78,ESE,112,7.0,15.0,97,0.01,,,0.12,meteohub,2013-03-20 08:00:00,
2013-03-20 08:05:00,33.6,32.9,29.78,SE,135,14.0,15.0,97,0.01,,,0.12,meteohub,2013-03-20 08:05:00,
2013-03-20 08:10:00,33.6,32.9,29.78,SE,135,11.0,17.0,97,0.02,,,0.13,meteohub,2013-03-20 08:10:00,
2013-03-20 08:16:00,33.6,32.9,29.78,East,90,4.0,17.0,97,0.01,,,0.13,meteohub,2013-03-20 08:16:00,
2013-03-20 08:21:00,33.6,32.9,29.78,ESE,112,6.0,17.0,97,0.01,,,0.13,meteohub,2013-03-20 08:21:00,
2013-03-20 08:26:00,33.8,32.7,29.78,East,90,10.0,13.0,96,0.01,,,0.13,meteohub,2013-03-20 08:26:00,
2013-03-20 08:31:00,33.8,32.7,29.78,ESE,112,8.0,11.0,96,0.01,,,0.13,meteohub,2013-03-20 08:31:00,
2013-03-20 08:36:00,34.2,33.1,29.81,East,90,4.0,11.0,96,0.01,,,0.13,meteohub,2013-03-20 08:36:00,
2013-03-20 08:42:00,34.2,33.1,29.81,ESE,112,7.0,13.0,96,0.01,,,0.13,meteohub,2013-03-20 08:42:00,
2013-03-20 08:47:00,34.3,33.1,29.81,East,90,8.0,13.0,95,0.01,,,0.13,meteohub,2013-03-20 08:47:00,
2013-03-20 08:52:00,34.3,32.7,29.81,ESE,112,5.0,13.0,94,0.01,,,0.13,meteohub,2013-03-20 08:52:00,
2013-03-20 08:57:00,34.5,32.9,29.81,ESE,112,6.0,13.0,94,0.01,,,0.13,meteohub,2013-03-20 08:57:00,
2013-03-20 09:02:00,34.5,32.9,29.81,East,90,8.0,13.0,94,0.02,,,0.14,meteohub,2013-03-20 09:02:00,
2013-03-20 09:07:00,34.5,32.7,29.81,East,90,6.0,13.0,93,0.02,,,0.14,meteohub,2013-03-20 09:07:00,
2013-03-20 09:12:00,34.5,32.9,29.81,East,90,10.0,13.0,94,0.01,,,0.14,meteohub,2013-03-20 09:12:00,
2013-03-20 09:18:00,34.5,32.9,29.81,ESE,112,13.0,15.0,94,0.01,,,0.14,meteohub,2013-03-20 09:18:00,
2013-03-20 09:23:00,34.3,32.7,29.81,SE,135,6.0,19.0,94,0.02,,,0.15,meteohub,2013-03-20 09:23:00,
2013-03-20 09:28:00,34.2,32.5,29.81,East,90,6.0,19.0,94,0.02,,,0.15,meteohub,2013-03-20 09:28:00,
2013-03-20 09:34:00,34.0,32.4,29.83,SE,135,6.0,19.0,94,0.02,,,0.15,meteohub,2013-03-20 09:34:00,
2013-03-20 09:39:00,34.3,33.1,29.83,East,90,6.0,15.0,95,0.02,,,0.15,meteohub,2013-03-20 09:39:00,
2013-03-20 09:44:00,34.7,33.4,29.83,SE,135,6.0,15.0,95,0.02,,,0.15,meteohub,2013-03-20 09:44:00,
2013-03-20 09:49:00,34.9,33.6,29.83,East,90,9.0,15.0,95,0.02,,,0.15,meteohub,2013-03-20 09:49:00,
2013-03-20 09:54:00,34.9,33.6,29.83,SE,135,6.0,17.0,95,0.02,,,0.15,meteohub,2013-03-20 09:54:00,
2013-03-20 10:00:00,35.1,33.4,29.83,ENE,67,7.0,17.0,94,0.02,,,0.15,meteohub,2013-03-20 10:00:00,
2013-03-20 10:05:00,35.4,33.6,29.83,East,90,8.0,16.0,93,0.02,,,0.16,meteohub,2013-03-20 10:05:00,
2013-03-20 10:10:00,35.4,33.6,29.83,ESE,112,11.0,16.0,93,0.02,,,0.16,meteohub,2013-03-20 10:10:00,
2013-03-20 10:15:00,35.4,33.1,29.83,ESE,112,11.0,18.0,91,0.03,,,0.17,meteohub,2013-03-20 10:15:00,
2013-03-20 10:20:00,35.2,32.5,29.83,East,90,10.0,18.0,90,0.02,,,0.17,meteohub,2013-03-20 10:20:00,
2013-03-20 10:25:00,35.6,32.9,29.83,ESE,112,6.0,15.0,90,0.02,,,0.17,meteohub,2013-03-20 10:25:00,
2013-03-20 10:31:00,35.4,32.7,29.83,SE,135,13.0,18.0,90,0.03,,,0.17,meteohub,2013-03-20 10:31:00,
2013-03-20 10:36:00,35.4,32.7,29.83,ESE,112,12.0,18.0,90,0.03,,,0.17,meteohub,2013-03-20 10:36:00,
2013-03-20 10:41:00,35.2,32.4,29.83,ESE,112,11.0,18.0,89,0.03,,,0.17,meteohub,2013-03-20 10:41:00,
2013-03-20 10:46:00,35.1,32.2,29.83,SE,135,8.0,17.0,89,0.03,,,0.17,meteohub,2013-03-20 10:46:00,
2013-03-20 10:52:00,35.1,32.2,29.83,SSE,157,10.0,16.0,89,0.03,,,0.18,meteohub,2013-03-20 10:52:00,
2013-03-20 10:57:00,34.9,32.2,29.83,SE,135,9.0,15.0,90,0.03,,,0.18,meteohub,2013-03-20 10:57:00,
2013-03-20 11:02:00,34.9,32.2,29.86,East,90,11.0,15.0,90,0.03,,,0.19,meteohub,2013-03-20 11:02:00,
2013-03-20 11:07:00,34.9,32.5,29.86,SSE,157,9.0,13.0,91,0.03,,,0.19,meteohub,2013-03-20 11:07:00,
2013-03-20 11:12:00,35.2,33.1,29.86,SE,135,6.0,13.0,92,0.03,,,0.19,meteohub,2013-03-20 11:12:00,
2013-03-20 11:17:00,35.6,33.3,29.86,ESE,112,6.0,13.0,91,0.03,,,0.19,meteohub,2013-03-20 11:17:00,
2013-03-20 11:22:00,35.6,33.3,29.86,SSE,157,6.0,13.0,91,0.03,,,0.19,meteohub,2013-03-20 11:22:00,
2013-03-20 11:28:00,35.8,33.1,29.86,ENE,67,6.0,13.0,90,0.03,,,0.20,meteohub,2013-03-20 11:28:00,
2013-03-20 11:33:00,35.8,33.1,29.86,ESE,112,7.0,13.0,90,0.03,,,0.20,meteohub,2013-03-20 11:33:00,
2013-03-20 11:38:00,36.0,33.1,29.86,SE,135,8.0,13.0,89,0.03,,,0.20,meteohub,2013-03-20 11:38:00,
2013-03-20 11:43:00,36.0,33.1,29.86,East,90,6.0,13.0,89,0.03,,,0.20,meteohub,2013-03-20 11:43:00,
2013-03-20 11:48:00,36.1,33.3,29.86,ESE,112,8.0,13.0,89,0.03,,,0.21,meteohub,2013-03-20 11:48:00,
2013-03-20 11:54:00,36.1,32.9,29.86,East,90,12.0,13.0,88,0.04,,,0.22,meteohub,2013-03-20 11:54:00,
2013-03-20 11:59:00,36.3,32.9,29.86,East,90,12.0,13.0,87,0.04,,,0.22,meteohub,2013-03-20 11:59:00,
2013-03-20 12:04:00,36.5,32.4,29.86,SE,135,9.0,15.0,85,0.04,,,0.22,meteohub,2013-03-20 12:04:00,
2013-03-20 12:09:00,36.5,31.8,29.86,East,90,7.0,15.0,83,0.04,,,0.23,meteohub,2013-03-20 12:09:00,
2013-03-20 12:15:00,36.7,31.5,29.86,ESE,112,11.0,13.0,81,0.04,,,0.23,meteohub,2013-03-20 12:15:00,
2013-03-20 12:20:00,36.9,31.6,29.86,East,90,13.0,13.0,81,0.04,,,0.24,meteohub,2013-03-20 12:20:00,
2013-03-20 12:25:00,37.0,30.7,29.86,East,90,6.0,18.0,78,0.04,,,0.24,meteohub,2013-03-20 12:25:00,
2013-03-20 12:30:00,36.3,33.1,29.86,East,90,4.0,18.0,88,0.05,,,0.24,meteohub,2013-03-20 12:30:00,
2013-03-20 12:36:00,37.2,30.4,29.86,East,90,6.0,18.0,76,0.05,,,0.25,meteohub,2013-03-20 12:36:00,
2013-03-20 12:41:00,37.2,30.7,29.86,SSE,157,9.0,16.0,77,0.05,,,0.25,meteohub,2013-03-20 12:41:00,
2013-03-20 12:47:00,37.4,30.9,29.86,SE,135,10.0,18.0,77,0.04,,,0.25,meteohub,2013-03-20 12:47:00,
2013-03-20 12:52:00,37.2,30.4,29.86,ESE,112,13.0,18.0,76,0.04,,,0.26,meteohub,2013-03-20 12:52:00,
2013-03-20 12:57:00,36.3,33.1,29.86,East,90,11.0,18.0,88,0.05,,,0.26,meteohub,2013-03-20 12:57:00,
2013-03-20 13:02:00,36.3,33.1,29.89,ESE,112,11.0,17.0,88,0.04,,,0.26,meteohub,2013-03-20 13:02:00,
2013-03-20 13:08:00,37.4,30.2,29.89,ESE,112,5.0,17.0,75,0.04,,,0.27,meteohub,2013-03-20 13:08:00,
2013-03-20 13:13:00,37.6,30.4,29.89,East,90,6.0,13.0,75,0.05,,,0.27,meteohub,2013-03-20 13:13:00,
2013-03-20 13:18:00,37.8,30.9,29.89,East,90,11.0,13.0,76,0.05,,,0.28,meteohub,2013-03-20 13:18:00,
2013-03-20 13:23:00,38.3,30.7,29.89,ESE,112,13.0,17.0,74,0.04,,,0.28,meteohub,2013-03-20 13:23:00,
2013-03-20 13:28:00,38.7,30.7,29.89,ESE,112,8.0,18.0,73,0.05,,,0.28,meteohub,2013-03-20 13:28:00,
2013-03-20 13:33:00,38.5,29.5,29.89,NNE,22,8.0,18.0,70,0.05,,,0.29,meteohub,2013-03-20 13:33:00,
2013-03-20 13:39:00,38.3,28.9,29.89,East,90,15.0,18.0,69,0.05,,,0.29,meteohub,2013-03-20 13:39:00,
2013-03-20 13:44:00,38.1,28.6,29.89,ESE,112,10.0,17.0,68,0.05,,,0.30,meteohub,2013-03-20 13:44:00,
2013-03-20 13:49:00,38.5,28.4,29.89,SE,135,4.0,17.0,67,0.05,,,0.30,meteohub,2013-03-20 13:49:00,
2013-03-20 13:54:00,38.5,28.8,29.89,SE,135,9.0,17.0,68,0.06,,,0.31,meteohub,2013-03-20 13:54:00,
2013-03-20 14:00:00,38.8,29.5,29.89,East,90,10.0,16.0,69,0.05,,,0.31,meteohub,2013-03-20 14:00:00,
2013-03-20 14:05:00,38.7,28.9,29.89,East,90,10.0,16.0,68,0.06,,,0.32,meteohub,2013-03-20 14:05:00,
2013-03-20 14:10:00,38.7,28.9,29.89,ESE,112,15.0,17.0,68,0.06,,,0.33,meteohub,2013-03-20 14:10:00,
2013-03-20 14:15:00,38.8,29.1,29.89,ENE,67,10.0,17.0,68,0.06,,,0.33,meteohub,2013-03-20 14:15:00,
2013-03-20 14:20:00,39.0,28.9,29.89,ENE,67,13.0,17.0,67,0.06,,,0.34,meteohub,2013-03-20 14:20:00,
2013-03-20 14:26:00,39.2,28.8,29.89,East,90,13.0,16.0,66,0.06,,,0.35,meteohub,2013-03-20 14:26:00,
2013-03-20 14:31:00,39.2,28.4,29.89,SE,135,13.0,16.0,65,0.06,,,0.35,meteohub,2013-03-20 14:31:00,
2013-03-20 14:36:00,39.0,27.9,29.89,East,90,7.0,15.0,64,0.06,,,0.35,meteohub,2013-03-20 14:36:00,
2013-03-20 14:41:00,39.2,28.4,29.89,SE,135,15.0,15.0,65,0.06,,,0.35,meteohub,2013-03-20 14:41:00,
2013-03-20 14:47:00,39.4,28.9,29.89,ESE,112,6.0,15.0,66,0.06,,,0.36,meteohub,2013-03-20 14:47:00,
2013-03-20 14:52:00,39.2,28.8,29.89,East,90,8.0,15.0,66,0.05,,,0.37,meteohub,2013-03-20 14:52:00,
2013-03-20 14:57:00,39.2,28.8,29.89,East,90,11.0,15.0,66,0.05,,,0.37,meteohub,2013-03-20 14:57:00,
2013-03-20 15:02:00,38.8,28.4,29.89,East,90,4.0,15.0,66,0.05,,,0.37,meteohub,2013-03-20 15:02:00,
2013-03-20 15:07:00,38.5,28.4,29.89,ESE,112,8.0,15.0,67,0.05,,,0.37,meteohub,2013-03-20 15:07:00,
2013-03-20 15:12:00,37.9,28.0,29.89,East,90,13.0,14.0,67,0.05,,,0.37,meteohub,2013-03-20 15:12:00,
2013-03-20 15:17:00,37.6,28.0,29.92,East,90,9.0,14.0,68,0.05,,,0.38,meteohub,2013-03-20 15:17:00,
2013-03-20 15:22:00,37.4,28.2,29.92,East,90,6.0,16.0,69,0.04,,,0.38,meteohub,2013-03-20 15:22:00,
2013-03-20 15:27:00,37.0,28.6,29.92,East,90,11.0,16.0,71,0.04,,,0.39,meteohub,2013-03-20 15:27:00,
2013-03-20 15:33:00,36.9,28.9,29.92,ESE,112,7.0,16.0,73,0.04,,,0.39,meteohub,2013-03-20 15:33:00,
2013-03-20 15:38:00,36.7,28.6,29.92,ESE,112,13.0,13.0,72,0.04,,,0.39,meteohub,2013-03-20 15:38:00,
2013-03-20 15:43:00,36.9,28.0,29.92,East,90,10.0,13.0,70,0.04,,,0.39,meteohub,2013-03-20 15:43:00,
2013-03-20 15:48:00,36.9,27.7,29.92,East,90,8.0,17.0,69,0.03,,,0.39,meteohub,2013-03-20 15:48:00,
2013-03-20 15:54:00,36.9,27.7,29.92,SE,135,13.0,17.0,69,0.03,,,0.39,meteohub,2013-03-20 15:54:00,
2013-03-20 15:59:00,36.9,28.0,29.92,East,90,8.0,17.0,70,0.03,,,0.40,meteohub,2013-03-20 15:59:00,
2013-03-20 16:04:00,36.9,27.7,29.92,SE,135,11.0,15.0,69,0.03,,,0.40,meteohub,2013-03-20 16:04:00,
2013-03-20 16:09:00,37.0,28.2,29.92,East,90,8.0,13.0,70,0.02,,,0.40,meteohub,2013-03-20 16:09:00,
2013-03-20 16:14:00,37.0,28.6,29.92,SE,135,11.0,13.0,71,0.02,,,0.40,meteohub,2013-03-20 16:14:00,
2013-03-20 16:19:00,36.9,28.9,29.92,SE,135,7.0,15.0,73,0.02,,,0.40,meteohub,2013-03-20 16:19:00,
2013-03-20 16:24:00,36.7,28.8,29.92,SE,135,8.0,15.0,73,0.02,,,0.40,meteohub,2013-03-20 16:24:00,
2013-03-20 16:30:00,36.7,28.6,29.92,ESE,112,4.0,15.0,72,0.02,,,0.41,meteohub,2013-03-20 16:30:00,
2013-03-20 16:35:00,36.5,28.8,29.92,SE,135,12.0,15.0,73,0.02,,,0.41,meteohub,2013-03-20 16:35:00,
2013-03-20 16:40:00,36.5,28.8,29.92,ESE,112,9.0,15.0,73,0.02,,,0.41,meteohub,2013-03-20 16:40:00,
2013-03-20 16:45:00,36.3,28.2,29.92,East,90,12.0,15.0,72,0.02,,,0.41,meteohub,2013-03-20 16:45:00,
2013-03-20 16:51:00,36.3,28.2,29.95,ENE,67,5.0,15.0,72,0.02,,,0.41,meteohub,2013-03-20 16:51:00,
2013-03-20 16:56:00,36.1,27.7,29.95,SE,135,9.0,14.0,71,0.02,,,0.42,meteohub,2013-03-20 16:56:00,
2013-03-20 17:01:00,36.0,27.5,29.95,ESE,112,8.0,14.0,71,0.02,,,0.42,meteohub,2013-03-20 17:01:00,
2013-03-20 17:06:00,36.0,27.5,29.95,East,90,6.0,14.0,71,0.02,,,0.42,meteohub,2013-03-20 17:06:00,
2013-03-20 17:12:00,35.8,27.7,29.95,East,90,6.0,13.0,72,0.02,,,0.42,meteohub,2013-03-20 17:12:00,
2013-03-20 17:17:00,35.6,27.1,29.95,SE,135,9.0,13.0,71,0.02,,,0.42,meteohub,2013-03-20 17:17:00,
2013-03-20 17:22:00,35.6,27.5,29.95,East,90,5.0,13.0,72,0.02,,,0.42,meteohub,2013-03-20 17:22:00,
2013-03-20 17:28:00,35.6,27.9,29.95,ESE,112,11.0,13.0,73,0.02,,,0.42,meteohub,2013-03-20 17:28:00,
2013-03-20 17:33:00,35.4,27.7,29.95,SE,135,10.0,13.0,73,0.02,,,0.42,meteohub,2013-03-20 17:33:00,
2013-03-20 17:38:00,35.2,27.5,29.95,East,90,9.0,13.0,73,0.02,,,0.42,meteohub,2013-03-20 17:38:00,
2013-03-20 17:43:00,35.1,27.7,29.95,SSE,157,9.0,13.0,74,0.02,,,0.42,meteohub,2013-03-20 17:43:00,
2013-03-20 17:48:00,35.1,27.9,29.95,ESE,112,10.0,13.0,75,0.02,,,0.42,meteohub,2013-03-20 17:48:00,
2013-03-20 17:54:00,34.9,28.0,29.95,ESE,112,13.0,13.0,76,0.02,,,0.42,meteohub,2013-03-20 17:54:00,
2013-03-20 17:59:00,34.9,28.0,29.95,ESE,112,6.0,13.0,76,0.00,,,0.42,meteohub,2013-03-20 17:59:00,
2013-03-20 18:04:00,34.7,28.2,29.95,ESE,112,4.0,13.0,77,0.00,,,0.42,meteohub,2013-03-20 18:04:00,
2013-03-20 18:09:00,34.5,28.0,29.95,East,90,4.0,13.0,77,0.01,,,0.43,meteohub,2013-03-20 18:09:00,
2013-03-20 18:14:00,34.3,28.2,29.95,ESE,112,4.0,9.0,78,0.01,,,0.43,meteohub,2013-03-20 18:14:00,
2013-03-20 18:19:00,34.3,28.2,29.95,East,90,4.0,9.0,78,0.01,,,0.43,meteohub,2013-03-20 18:19:00,
2013-03-20 18:24:00,34.2,28.0,29.95,ESE,112,11.0,11.0,78,0.00,,,0.43,meteohub,2013-03-20 18:24:00,
2013-03-20 18:30:00,34.0,28.2,29.95,SE,135,6.0,11.0,79,0.00,,,0.43,meteohub,2013-03-20 18:30:00,
2013-03-20 18:35:00,34.0,28.2,29.98,ESE,112,6.0,11.0,79,0.00,,,0.43,meteohub,2013-03-20 18:35:00,
2013-03-20 18:40:00,33.8,28.2,29.98,SE,135,4.0,9.0,80,0.00,,,0.43,meteohub,2013-03-20 18:40:00,
2013-03-20 18:45:00,33.6,28.0,29.98,East,90,4.0,8.0,80,0.00,,,0.43,meteohub,2013-03-20 18:45:00,
2013-03-20 18:50:00,33.6,28.4,29.98,ESE,112,5.0,9.0,81,0.00,,,0.43,meteohub,2013-03-20 18:50:00,
2013-03-20 18:56:00,33.6,28.4,29.98,SE,135,4.0,9.0,81,0.00,,,0.43,meteohub,2013-03-20 18:56:00,
2013-03-20 19:01:00,33.4,28.2,29.98,ESE,112,2.0,9.0,81,0.00,,,0.43,meteohub,2013-03-20 19:01:00,
2013-03-20 19:06:00,33.4,28.6,29.98,East,90,4.0,9.0,82,0.00,,,0.43,meteohub,2013-03-20 19:06:00,
2013-03-20 19:12:00,33.4,28.6,29.98,East,90,3.0,7.0,82,0.00,,,0.43,meteohub,2013-03-20 19:12:00,
2013-03-20 19:17:00,33.6,28.9,29.98,ENE,67,10.0,10.0,83,0.00,,,0.43,meteohub,2013-03-20 19:17:00,
2013-03-20 19:22:00,33.4,29.1,29.98,East,90,6.0,10.0,84,0.00,,,0.43,meteohub,2013-03-20 19:22:00,
2013-03-20 19:27:00,33.3,29.3,29.98,ENE,67,6.0,10.0,85,0.00,,,0.43,meteohub,2013-03-20 19:27:00,
2013-03-20 19:32:00,33.3,29.5,29.98,East,90,5.0,10.0,86,0.00,,,0.43,meteohub,2013-03-20 19:32:00,
2013-03-20 19:38:00,33.3,29.8,29.98,East,90,6.0,9.0,87,0.00,,,0.43,meteohub,2013-03-20 19:38:00,
2013-03-20 19:43:00,33.1,29.7,29.98,East,90,6.0,9.0,87,0.00,,,0.43,meteohub,2013-03-20 19:43:00,
2013-03-20 19:48:00,33.1,29.7,30.01,East,90,5.0,8.0,87,0.00,,,0.43,meteohub,2013-03-20 19:48:00,
2013-03-20 19:54:00,33.1,29.8,30.01,East,90,6.0,8.0,88,0.00,,,0.43,meteohub,2013-03-20 19:54:00,
2013-03-20 19:59:00,33.1,29.8,30.01,East,90,8.0,8.0,88,0.00,,,0.43,meteohub,2013-03-20 19:59:00,
2013-03-20 20:04:00,32.9,30.0,30.01,SE,135,8.0,10.0,89,0.00,,,0.43,meteohub,2013-03-20 20:04:00,
2013-03-20 20:09:00,32.7,29.8,30.01,East,90,7.0,10.0,89,0.00,,,0.43,meteohub,2013-03-20 20:09:00,
2013-03-20 20:14:00,32.7,29.8,30.01,East,90,5.0,10.0,89,0.00,,,0.43,meteohub,2013-03-20 20:14:00,
2013-03-20 20:20:00,32.7,29.8,30.01,ESE,112,5.0,9.0,89,0.00,,,0.43,meteohub,2013-03-20 20:20:00,
2013-03-20 20:25:00,32.7,29.8,30.01,SSE,157,4.0,7.0,89,0.00,,,0.43,meteohub,2013-03-20 20:25:00,
2013-03-20 20:30:00,32.7,29.8,30.01,SE,135,8.0,8.0,89,0.00,,,0.43,meteohub,2013-03-20 20:30:00,
2013-03-20 20:36:00,32.9,30.4,30.01,SE,135,7.0,10.0,90,0.00,,,0.43,meteohub,2013-03-20 20:36:00,
2013-03-20 20:41:00,32.9,30.4,30.01,ESE,112,6.0,10.0,90,0.00,,,0.43,meteohub,2013-03-20 20:41:00,
2013-03-20 20:46:00,32.7,30.4,30.01,ESE,112,3.0,10.0,91,0.00,,,0.43,meteohub,2013-03-20 20:46:00,
2013-03-20 20:51:00,32.7,30.4,30.01,East,90,3.0,9.0,91,0.00,,,0.43,meteohub,2013-03-20 20:51:00,
2013-03-20 20:57:00,32.7,30.4,30.01,ENE,67,5.0,8.0,91,0.00,,,0.43,meteohub,2013-03-20 20:57:00,
2013-03-20 21:02:00,32.7,30.7,30.01,ENE,67,4.0,6.0,92,0.00,,,0.43,meteohub,2013-03-20 21:02:00,
2013-03-20 21:07:00,32.7,30.7,30.01,ENE,67,2.0,6.0,92,0.00,,,0.43,meteohub,2013-03-20 21:07:00,
2013-03-20 21:12:00,32.7,30.7,30.01,SE,135,10.0,10.0,92,0.00,,,0.43,meteohub,2013-03-20 21:12:00,
2013-03-20 21:17:00,32.7,30.7,30.01,ESE,112,6.0,10.0,92,0.00,,,0.43,meteohub,2013-03-20 21:17:00,
2013-03-20 21:23:00,32.7,30.7,30.01,SSE,157,3.0,10.0,92,0.00,,,0.43,meteohub,2013-03-20 21:23:00,
2013-03-20 21:28:00,32.7,30.7,30.01,SSE,157,3.0,10.0,92,0.00,,,0.43,meteohub,2013-03-20 21:28:00,
2013-03-20 21:33:00,32.5,30.6,30.01,East,90,4.0,8.0,92,0.00,,,0.43,meteohub,2013-03-20 21:33:00,
2013-03-20 21:38:00,32.5,30.6,30.01,ESE,112,3.0,6.0,92,0.00,,,0.43,meteohub,2013-03-20 21:38:00,
2013-03-20 21:44:00,32.7,30.7,30.01,ESE,112,3.0,6.0,92,0.00,,,0.44,meteohub,2013-03-20 21:44:00,
2013-03-20 21:49:00,32.7,30.7,30.01,East,90,2.0,6.0,92,0.00,,,0.44,meteohub,2013-03-20 21:49:00,
2013-03-20 21:54:00,32.7,30.7,30.01,East,90,3.0,4.0,92,0.00,,,0.44,meteohub,2013-03-20 21:54:00,
2013-03-20 21:59:00,32.7,30.7,30.01,North,0,0.0,4.0,92,0.00,,,0.44,meteohub,2013-03-20 21:59:00,
2013-03-20 22:04:00,32.7,30.7,30.01,ENE,67,0.0,4.0,92,0.00,,,0.44,meteohub,2013-03-20 22:04:00,
2013-03-20 22:10:00,32.7,30.9,30.01,SE,135,5.0,5.0,93,0.00,,,0.44,meteohub,2013-03-20 22:10:00,
2013-03-20 22:15:00,32.7,31.1,30.01,SSE,157,6.0,8.0,94,0.00,,,0.44,meteohub,2013-03-20 22:15:00,
2013-03-20 22:20:00,32.7,31.1,30.04,SE,135,5.0,8.0,94,0.00,,,0.44,meteohub,2013-03-20 22:20:00,
2013-03-20 22:25:00,32.7,31.1,30.04,SSE,157,4.0,9.0,94,0.00,,,0.44,meteohub,2013-03-20 22:25:00,
2013-03-20 22:30:00,32.7,31.1,30.04,SE,135,5.0,9.0,94,0.00,,,0.44,meteohub,2013-03-20 22:30:00,
2013-03-20 22:35:00,32.7,31.1,30.04,SSE,157,1.0,9.0,94,0.00,,,0.44,meteohub,2013-03-20 22:35:00,
2013-03-20 22:41:00,32.7,31.1,30.04,SSE,157,2.0,7.0,94,0.00,,,0.44,meteohub,2013-03-20 22:41:00,
2013-03-20 22:46:00,32.7,31.1,30.04,ESE,112,5.0,6.0,94,0.00,,,0.44,meteohub,2013-03-20 22:46:00,
2013-03-20 22:51:00,32.7,30.9,30.04,East,90,1.0,6.0,93,0.00,,,0.44,meteohub,2013-03-20 22:51:00,
2013-03-20 22:56:00,32.7,30.9,30.04,SE,135,4.0,7.0,93,0.00,,,0.44,meteohub,2013-03-20 22:56:00,
2013-03-20 23:02:00,32.7,30.9,30.04,SE,135,4.0,7.0,93,0.00,,,0.44,meteohub,2013-03-20 23:02:00,
2013-03-20 23:07:00,32.7,30.9,30.04,SE,135,4.0,7.0,93,0.00,,,0.44,meteohub,2013-03-20 23:07:00,
2013-03-20 23:12:00,32.7,30.9,30.04,SSE,157,5.0,6.0,93,0.00,,,0.44,meteohub,2013-03-20 23:12:00,
2013-03-20 23:17:00,32.7,30.9,30.04,SE,135,3.0,6.0,93,0.00,,,0.44,meteohub,2013-03-20 23:17:00,
2013-03-20 23:22:00,32.7,30.7,30.04,SSE,157,3.0,6.0,92,0.00,,,0.44,meteohub,2013-03-20 23:22:00,
2013-03-20 23:27:00,32.5,30.6,30.04,SE,135,3.0,6.0,92,0.00,,,0.44,meteohub,2013-03-20 23:27:00,
2013-03-20 23:32:00,32.5,30.6,30.04,SE,135,2.0,6.0,92,0.00,,,0.44,meteohub,2013-03-20 23:32:00,
2013-03-20 23:37:00,32.5,30.6,30.04,South,180,3.0,4.0,92,0.00,,,0.44,meteohub,2013-03-20 23:37:00,
2013-03-20 23:42:00,32.5,30.6,30.04,SE,135,0.0,4.0,92,0.00,,,0.44,meteohub,2013-03-20 23:42:00,
2013-03-20 23:47:00,32.5,30.6,30.04,ESE,112,1.0,4.0,92,0.00,,,0.44,meteohub,2013-03-20 23:47:00,
2013-03-20 23:53:00,32.5,30.6,30.04,SE,135,3.0,5.0,92,0.00,,,0.44,meteohub,2013-03-20 23:53:00,
2013-03-20 23:58:00,32.5,30.6,30.04,ENE,67,4.0,5.0,92,0.00,,,0.44,meteohub,2013-03-20 23:58:00,